Location: Kerb�bon
(47.7970°N, 3.3487°W)
Time: 12:54:20
(UTC+00:00)

Cosmos 2369 Rocket - Pass Details

Date: 12 May 2021
Orbit: 827 x 854 km, 71.0° (Epoch: 18 June)

Event Time Altitude Azimuth Distance (km) Brightness Sun altitude
Exits shadow 23:43:36 50° 213° (SSW) 1,051 2.3 -23.6°
Maximum altitude 23:45:07 85° 295° (WNW) 846 2.1 -23.6°
Drops below altitude 10° 23:50:48 10° 27° (NNE) 2,468 5.4 -23.7°
Sets 23:53:16 0° 28° (NNE) 3,411 6.3 -23.7°
